When you browse on this site, cookies collect data to enhance your experience and personalize the content and advertising you see.
Visit our Privacy Policy to learn more. By continuing to use the site, you agree to this use of cookies and data.
  • In Lithuania
  • List of Countries
  • For 7 days
  • Water Temperature
  • Weather Map
  • Weather Widgets
  • user-avatar
    Login

    Hourly Weather Kerns

    Today, 13 December, Friday

    Time Temperature Precipitation Wind Pressure Humidity
    00:00 +25°C° 0 mm 2 mps 757 mmHg 97%
    01:00 +25°C° 0 mm 2 mps 756 mmHg 97%
    02:00 +24°C° 0 mm 2 mps 756 mmHg 97%
    03:00 +24°C° 0 mm 2 mps 756 mmHg 97%
    04:00 +24°C° 0 mm 2 mps 756 mmHg 96%
    05:00 +25°C° 0 mm 2 mps 757 mmHg 90%
    06:00 +26°C° 0 mm 2 mps 757 mmHg 84%
    07:00 +27°C° 0 mm 1 mps 758 mmHg 77%
    08:00 +31°C° 0 mm 1 mps 757 mmHg 63%
    09:00 +35°C° 0 mm 2 mps 757 mmHg 48%
    10:00 +39°C° 0 mm 2 mps 757 mmHg 33%
    11:00 +39°C° 0 mm 2 mps 757 mmHg 32%
    12:00 +39°C° 0 mm 3 mps 756 mmHg 31%
    13:00 +40°C° 0 mm 3 mps 756 mmHg 30%
    14:00 +39°C° 0 mm 3 mps 755 mmHg 32%
    15:00 +39°C° 0 mm 3 mps 755 mmHg 34%
    16:00 +38°C° 0 mm 3 mps 754 mmHg 36%
    17:00 +35°C° 0 mm 2 mps 755 mmHg 50%
    18:00 +31°C° 0 mm 2 mps 755 mmHg 63%
    19:00 +28°C° 0 mm 1 mps 755 mmHg 77%
    20:00 +27°C° 0 mm 1 mps 756 mmHg 83%
    21:00 +26°C° 0 mm 1 mps 756 mmHg 88%
    22:00 +23°C° 0 mm 0 mps 757 mmHg 94%
    23:00 +23°C° 0 mm 0 mps 756 mmHg 94%

    Tomorrow, 14 December, Saturday

    Time Temperature Precipitation Wind Pressure Humidity
    00:00 +24°C° 0 mm 1 mps 756 mmHg 94%
    01:00 +24°C° 0 mm 1 mps 756 mmHg 94%
    02:00 +24°C° 0 mm 1 mps 756 mmHg 94%
    03:00 +24°C° 0 mm 1 mps 756 mmHg 95%
    04:00 +24°C° 0 mm 1 mps 756 mmHg 95%
    05:00 +25°C° 0 mm 1 mps 757 mmHg 89%
    06:00 +26°C° 0 mm 1 mps 757 mmHg 82%
    07:00 +27°C° 0 mm 1 mps 758 mmHg 75%
    08:00 +31°C° 0 mm 1 mps 758 mmHg 61%
    09:00 +35°C° 0 mm 1 mps 758 mmHg 46%
    10:00 +40°C° 0 mm 1 mps 758 mmHg 31%
    11:00 +40°C° 0 mm 2 mps 757 mmHg 31%
    12:00 +40°C° 0 mm 2 mps 756 mmHg 32%
    13:00 +42°C° 0 mm 3 mps 756 mmHg 32%
    14:00 +40°C° 0 mm 2 mps 755 mmHg 35%
    15:00 +38°C° 0 mm 2 mps 755 mmHg 39%
    16:00 +37°C° 0 mm 2 mps 754 mmHg 42%
    17:00 +35°C° 0 mm 2 mps 754 mmHg 53%
    18:00 +31°C° 0 mm 2 mps 755 mmHg 64%
    19:00 +28°C° 0 mm 2 mps 755 mmHg 75%
    20:00 +27°C° 0 mm 1 mps 756 mmHg 77%
    21:00 +27°C° 0 mm 1 mps 756 mmHg 79%
    22:00 +26°C° 0 mm 1 mps 756 mmHg 81%
    23:00 +26°C° 0 mm 1 mps 756 mmHg 82%

    Day after tomorrow, 15 December, Sunday

    Time Temperature Precipitation Wind Pressure Humidity
    00:00 +25°C° 0 mm 1 mps 756 mmHg 84%
    01:00 +25°C° 0 mm 1 mps 755 mmHg 86%
    02:00 +25°C° 0 mm 1 mps 755 mmHg 88%
    03:00 +25°C° 0 mm 1 mps 755 mmHg 90%
    04:00 +25°C° 0 mm 1 mps 755 mmHg 92%
    05:00 +26°C° 0 mm 1 mps 756 mmHg 87%
    06:00 +27°C° 0 mm 1 mps 756 mmHg 82%
    07:00 +28°C° 0 mm 1 mps 756 mmHg 77%
    08:00 +31°C° 0 mm 1 mps 756 mmHg 64%
    09:00 +34°C° 0 mm 1 mps 757 mmHg 52%
    10:00 +39°C° 0 mm 2 mps 757 mmHg 39%
    11:00 +39°C° 0 mm 2 mps 756 mmHg 40%
    12:00 +39°C° 0 mm 3 mps 756 mmHg 41%
    13:00 +39°C° 0 mm 3 mps 755 mmHg 41%
    14:00 +37°C° 0.5 mm 3 mps 755 mmHg 50%
    15:00 +34°C° 0.5 mm 3 mps 754 mmHg 59%
    16:00 +31°C° 0.5 mm 3 mps 754 mmHg 67%
    17:00 +30°C° 0.1 mm 2 mps 755 mmHg 71%
    18:00 +29°C° 0.1 mm 2 mps 755 mmHg 76%
    19:00 +28°C° 0.1 mm 1 mps 756 mmHg 80%
    20:00 +27°C° 0 mm 1 mps 756 mmHg 81%
    21:00 +27°C° 0 mm 1 mps 756 mmHg 82%
    22:00 +26°C° 0 mm 2 mps 757 mmHg 84%
    23:00 +26°C° 0 mm 2 mps 756 mmHg 85%

    16 December, Monday

    Time Temperature Precipitation Wind Pressure Humidity
    00:00 +26°C° 0 mm 2 mps 756 mmHg 86%
    01:00 +26°C° 0 mm 2 mps 756 mmHg 87%
    02:00 +26°C° 0 mm 1 mps 756 mmHg 90%
    03:00 +26°C° 0 mm 1 mps 756 mmHg 92%
    04:00 +26°C° 0 mm 1 mps 755 mmHg 94%
    05:00 +26°C° 0 mm 1 mps 756 mmHg 90%
    06:00 +27°C° 0 mm 1 mps 756 mmHg 86%
    07:00 +28°C° 0 mm 1 mps 757 mmHg 82%
    08:00 +31°C° 0 mm 1 mps 757 mmHg 69%
    09:00 +33°C° 0 mm 1 mps 757 mmHg 56%
    10:00 +37°C° 0 mm 2 mps 757 mmHg 42%
    11:00 +38°C° 0 mm 2 mps 757 mmHg 42%
    12:00 +38°C° 0 mm 2 mps 756 mmHg 41%
    13:00 +38°C° 0 mm 3 mps 756 mmHg 40%
    14:00 +38°C° 0 mm 3 mps 755 mmHg 43%
    15:00 +37°C° 0 mm 2 mps 755 mmHg 46%
    16:00 +36°C° 0 mm 2 mps 754 mmHg 49%
    17:00 +34°C° 0 mm 2 mps 755 mmHg 58%
    18:00 +30°C° 0 mm 2 mps 755 mmHg 68%
    19:00 +28°C° 0 mm 2 mps 756 mmHg 77%
    20:00 +27°C° 0 mm 2 mps 756 mmHg 83%
    21:00 +26°C° 0 mm 1 mps 756 mmHg 89%
    22:00 +25°C° 0 mm 1 mps 757 mmHg 95%
    23:00 +25°C° 0 mm 1 mps 757 mmHg 95%

    17 December, Tuesday

    Time Temperature Precipitation Wind Pressure Humidity
    00:00 +24°C° 0 mm 1 mps 756 mmHg 96%
    01:00 +24°C° 0 mm 1 mps 756 mmHg 96%
    02:00 +24°C° 0 mm 1 mps 756 mmHg 96%
    03:00 +24°C° 0 mm 1 mps 756 mmHg 97%
    04:00 +24°C° 0 mm 1 mps 755 mmHg 97%
    05:00 +25°C° 0 mm 1 mps 756 mmHg 91%
    06:00 +26°C° 0 mm 1 mps 756 mmHg 86%
    07:00 +27°C° 0 mm 1 mps 757 mmHg 80%
    08:00 +30°C° 0 mm 1 mps 757 mmHg 66%
    09:00 +34°C° 0 mm 2 mps 757 mmHg 52%
    10:00 +36°C° 0 mm 2 mps 757 mmHg 37%
    11:00 +37°C° 0 mm 3 mps 756 mmHg 36%
    12:00 +37°C° 0 mm 3 mps 756 mmHg 35%
    13:00 +37°C° 0 mm 4 mps 756 mmHg 34%
    14:00 +36°C° 0 mm 4 mps 755 mmHg 37%
    15:00 +36°C° 0 mm 4 mps 755 mmHg 40%
    16:00 +35°C° 0 mm 4 mps 755 mmHg 42%
    17:00 +33°C° 0 mm 4 mps 755 mmHg 53%
    18:00 +29°C° 0 mm 4 mps 756 mmHg 64%
    19:00 +27°C° 0 mm 4 mps 757 mmHg 75%
    20:00 +26°C° 0 mm 4 mps 757 mmHg 80%
    21:00 +26°C° 0 mm 4 mps 757 mmHg 86%
    22:00 +25°C° 0 mm 4 mps 758 mmHg 92%
    23:00 +25°C° 0 mm 4 mps 757 mmHg 92%

    18 December, Wednesday

    Time Temperature Precipitation Wind Pressure Humidity
    00:00 +23°C° 0 mm 4 mps 757 mmHg 93%
    01:00 +23°C° 0 mm 4 mps 757 mmHg 94%
    02:00 +24°C° 0.1 mm 3 mps 757 mmHg 94%
    03:00 +24°C° 0.1 mm 3 mps 757 mmHg 95%
    04:00 +24°C° 0.1 mm 3 mps 757 mmHg 96%
    05:00 +25°C° 0.1 mm 4 mps 757 mmHg 93%
    06:00 +26°C° 0.1 mm 4 mps 757 mmHg 89%
    07:00 +27°C° 0.1 mm 4 mps 758 mmHg 86%
    08:00 +29°C° 0.1 mm 4 mps 758 mmHg 75%
    09:00 +32°C° 0.1 mm 5 mps 758 mmHg 64%
    10:00 +34°C° 0.1 mm 5 mps 758 mmHg 53%
    11:00 +35°C° 0 mm 5 mps 757 mmHg 51%
    12:00 +35°C° 0 mm 5 mps 757 mmHg 48%
    13:00 +36°C° 0 mm 5 mps 757 mmHg 45%
    14:00 +35°C° 0.3 mm 5 mps 756 mmHg 51%
    15:00 +34°C° 0.3 mm 5 mps 756 mmHg 57%
    16:00 +33°C° 0.3 mm 5 mps 755 mmHg 63%
    17:00 +30°C° 0.8 mm 5 mps 756 mmHg 72%
    18:00 +28°C° 0.8 mm 5 mps 756 mmHg 82%
    19:00 +26°C° 0.8 mm 5 mps 757 mmHg 91%
    20:00 +26°C° 0.4 mm 5 mps 757 mmHg 92%
    21:00 +26°C° 0.4 mm 5 mps 758 mmHg 93%
    22:00 +25°C° 0.4 mm 5 mps 758 mmHg 95%
    23:00 +25°C° 0.1 mm 5 mps 758 mmHg 95%
    Show more